Time,TemperatureF,DewpointF,PressureIn,WindDirection,WindDirectionDegrees,WindSpeedMPH,WindSpeedGustMPH,Humidity,HourlyPrecipIn,Conditions,Clouds,dailyrainin,SoftwareType,DateUTC
2013-01-14 00:03:00,42.0,39.0,30.15,NE,44,5.0,-999.0,90,-99.99,,,0.25,,2013-01-14 06:03:00,
2013-01-14 00:12:00,42.0,39.0,30.15,NE,44,5.0,-999.0,90,-99.99,,,0.25,,2013-01-14 06:12:00,
2013-01-14 00:22:00,42.0,39.0,30.15,NW,305,4.0,-999.0,89,-99.99,,,0.25,,2013-01-14 06:22:00,
2013-01-14 00:32:00,42.0,39.0,30.16,NNW,342,5.0,-999.0,89,-99.99,,,0.25,,2013-01-14 06:32:00,
2013-01-14 00:42:00,42.0,39.0,30.16,NNW,342,5.0,-999.0,89,-99.99,,,0.25,,2013-01-14 06:42:00,
2013-01-14 00:52:00,42.0,39.0,30.15,NNW,336,4.0,-999.0,89,-99.99,,,0.25,,2013-01-14 06:52:00,
2013-01-14 01:02:00,42.0,39.0,30.16,NE,37,5.0,-999.0,90,-99.99,,,0.25,,2013-01-14 07:02:00,
2013-01-14 01:12:00,42.0,39.0,30.16,NE,37,5.0,-999.0,90,-99.99,,,0.25,,2013-01-14 07:12:00,
2013-01-14 01:22:00,42.0,39.0,30.17,NW,325,5.0,-999.0,89,-99.99,,,0.25,,2013-01-14 07:22:00,
2013-01-14 01:32:00,42.0,39.0,30.18,NNW,344,7.0,-999.0,89,-99.99,,,0.25,,2013-01-14 07:32:00,
2013-01-14 01:42:00,42.0,39.0,30.18,NNW,344,7.0,-999.0,89,-99.99,,,0.25,,2013-01-14 07:42:00,
2013-01-14 01:53:00,42.0,39.0,30.18,ENE,76,4.0,-999.0,89,-99.99,,,0.25,,2013-01-14 07:53:00,
2013-01-14 02:02:00,41.0,38.0,30.17,NE,48,3.0,-999.0,89,-99.99,,,0.25,,2013-01-14 08:02:00,
2013-01-14 02:12:00,41.0,38.0,30.17,NE,48,3.0,-999.0,89,-99.99,,,0.25,,2013-01-14 08:12:00,
2013-01-14 02:22:00,41.0,38.0,30.18,North,4,4.0,-999.0,89,-99.99,,,0.25,,2013-01-14 08:22:00,
2013-01-14 02:32:00,41.0,38.0,30.17,NE,53,5.0,-999.0,89,-99.99,,,0.25,,2013-01-14 08:32:00,
2013-01-14 02:42:00,41.0,38.0,30.17,NE,53,5.0,-999.0,89,-99.99,,,0.25,,2013-01-14 08:42:00,
2013-01-14 02:52:00,41.0,38.0,30.17,NE,35,7.0,-999.0,89,-99.99,,,0.25,,2013-01-14 08:52:00,
2013-01-14 03:02:00,41.0,38.0,30.18,NE,52,4.0,-999.0,89,-99.99,,,0.25,,2013-01-14 09:02:00,
2013-01-14 03:12:00,41.0,38.0,30.18,NE,52,4.0,-999.0,89,-99.99,,,0.25,,2013-01-14 09:12:00,
2013-01-14 03:22:00,41.0,38.0,30.17,North,350,5.0,-999.0,89,-99.99,,,0.25,,2013-01-14 09:22:00,
2013-01-14 03:33:00,41.0,38.0,30.18,North,8,5.0,-999.0,89,-99.99,,,0.25,,2013-01-14 09:33:00,
2013-01-14 03:42:00,41.0,38.0,30.18,North,8,5.0,-999.0,89,-99.99,,,0.25,,2013-01-14 09:42:00,
2013-01-14 03:53:00,41.0,38.0,30.17,NW,326,5.0,-999.0,90,-99.99,,,0.25,,2013-01-14 09:53:00,
2013-01-14 04:02:00,41.0,38.0,30.18,NNW,330,5.0,-999.0,90,-99.99,,,0.25,,2013-01-14 10:02:00,
2013-01-14 04:12:00,41.0,38.0,30.18,NNW,330,5.0,-999.0,90,-99.99,,,0.25,,2013-01-14 10:12:00,
2013-01-14 04:22:00,41.0,38.0,30.17,NNE,23,6.0,-999.0,89,-99.99,,,0.25,,2013-01-14 10:22:00,
2013-01-14 04:32:00,41.0,38.0,30.17,East,86,5.0,-999.0,89,-99.99,,,0.25,,2013-01-14 10:32:00,
2013-01-14 04:42:00,41.0,38.0,30.17,East,86,5.0,-999.0,89,-99.99,,,0.25,,2013-01-14 10:42:00,
2013-01-14 04:53:00,41.0,38.0,30.19,NNW,345,7.0,-999.0,89,-99.99,,,0.25,,2013-01-14 10:53:00,
2013-01-14 05:02:00,40.0,37.0,30.18,NNW,339,5.0,-999.0,89,-99.99,,,0.25,,2013-01-14 11:02:00,
2013-01-14 05:12:00,40.0,37.0,30.18,NNW,339,5.0,-999.0,89,-99.99,,,0.25,,2013-01-14 11:12:00,
2013-01-14 05:22:00,40.0,37.0,30.18,NNE,18,5.0,-999.0,89,-99.99,,,0.25,,2013-01-14 11:22:00,
2013-01-14 05:32:00,40.0,37.0,30.18,NW,322,5.0,-999.0,89,-99.99,,,0.25,,2013-01-14 11:32:00,
2013-01-14 05:42:00,40.0,37.0,30.18,NW,322,5.0,-999.0,89,-99.99,,,0.25,,2013-01-14 11:42:00,
2013-01-14 05:53:00,40.0,37.0,30.17,NNW,335,5.0,-999.0,89,-99.99,,,0.25,,2013-01-14 11:53:00,
2013-01-14 06:03:00,40.0,37.0,30.19,NE,46,7.0,-999.0,89,-99.99,,,0.25,,2013-01-14 12:03:00,
2013-01-14 06:12:00,40.0,37.0,30.19,NE,46,7.0,-999.0,89,-99.99,,,0.25,,2013-01-14 12:12:00,
2013-01-14 06:23:00,40.0,37.0,30.22,NNW,339,6.0,-999.0,89,-99.99,,,0.25,,2013-01-14 12:23:00,
2013-01-14 06:33:00,40.0,37.0,30.20,NNW,346,5.0,-999.0,90,-99.99,,,0.25,,2013-01-14 12:33:00,
2013-01-14 06:43:00,40.0,37.0,30.20,NNW,346,5.0,-999.0,90,-99.99,,,0.25,,2013-01-14 12:43:00,
2013-01-14 06:52:00,40.0,37.0,30.20,ENE,64,5.0,-999.0,90,-99.99,,,0.25,,2013-01-14 12:52:00,
2013-01-14 07:03:00,40.0,37.0,30.24,NW,310,6.0,-999.0,90,-99.99,,,0.25,,2013-01-14 13:03:00,
2013-01-14 07:12:00,40.0,37.0,30.24,NW,310,6.0,-999.0,90,-99.99,,,0.25,,2013-01-14 13:12:00,
2013-01-14 07:22:00,39.0,37.0,30.21,North,350,5.0,-999.0,91,-99.99,,,0.25,,2013-01-14 13:22:00,
2013-01-14 07:33:00,39.0,37.0,30.22,NE,43,5.0,-999.0,91,-99.99,,,0.25,,2013-01-14 13:33:00,
2013-01-14 07:43:00,39.0,37.0,30.22,NE,43,5.0,-999.0,91,-99.99,,,0.25,,2013-01-14 13:43:00,
2013-01-14 07:53:00,39.0,37.0,30.24,NW,314,5.0,-999.0,91,-99.99,,,0.25,,2013-01-14 13:53:00,
2013-01-14 08:02:00,38.0,36.0,30.24,NNW,347,8.0,-999.0,91,-99.99,,,0.25,,2013-01-14 14:02:00,
2013-01-14 08:13:00,38.0,36.0,30.24,NNW,347,8.0,-999.0,91,-99.99,,,0.25,,2013-01-14 14:13:00,
2013-01-14 08:22:00,38.0,36.0,30.24,ENE,64,6.0,-999.0,91,-99.99,,,0.25,,2013-01-14 14:22:00,
2013-01-14 08:33:00,37.0,35.0,30.23,East,91,8.0,-999.0,92,-99.99,,,0.25,,2013-01-14 14:33:00,
2013-01-14 08:43:00,37.0,35.0,30.23,East,91,8.0,-999.0,92,-99.99,,,0.25,,2013-01-14 14:43:00,
2013-01-14 08:53:00,37.0,35.0,30.25,NE,35,9.0,-999.0,92,-99.99,,,0.25,,2013-01-14 14:53:00,
2013-01-14 09:03:00,37.0,35.0,30.24,ENE,58,5.0,-999.0,93,-99.99,,,0.25,,2013-01-14 15:03:00,
2013-01-14 09:12:00,37.0,35.0,30.24,ENE,58,5.0,-999.0,93,-99.99,,,0.25,,2013-01-14 15:12:00,
2013-01-14 09:23:00,37.0,35.0,30.26,NE,39,4.0,-999.0,93,-99.99,,,0.25,,2013-01-14 15:23:00,
2013-01-14 09:33:00,37.0,35.0,30.24,North,4,6.0,-999.0,93,-99.99,,,0.26,,2013-01-14 15:33:00,
2013-01-14 09:43:00,37.0,35.0,30.24,North,4,6.0,-999.0,93,-99.99,,,0.26,,2013-01-14 15:43:00,
2013-01-14 09:53:00,37.0,35.0,30.24,NE,54,7.0,-999.0,94,-99.99,,,0.26,,2013-01-14 15:53:00,
2013-01-14 10:03:00,37.0,35.0,30.24,North,354,6.0,-999.0,94,-99.99,,,0.27,,2013-01-14 16:03:00,
2013-01-14 10:12:00,37.0,35.0,30.24,North,354,6.0,-999.0,94,-99.99,,,0.27,,2013-01-14 16:12:00,
2013-01-14 10:23:00,37.0,35.0,30.23,NE,42,4.0,-999.0,94,-99.99,,,0.27,,2013-01-14 16:23:00,
2013-01-14 10:33:00,37.0,35.0,30.23,NE,54,5.0,-999.0,94,-99.99,,,0.27,,2013-01-14 16:33:00,
2013-01-14 10:43:00,37.0,35.0,30.23,NE,54,5.0,-999.0,94,-99.99,,,0.27,,2013-01-14 16:43:00,
2013-01-14 10:53:00,37.0,35.0,30.25,NW,326,4.0,-999.0,94,-99.99,,,0.28,,2013-01-14 16:53:00,
2013-01-14 11:03:00,37.0,35.0,30.23,NE,51,6.0,-999.0,94,-99.99,,,0.29,,2013-01-14 17:03:00,
2013-01-14 11:12:00,37.0,35.0,30.23,NE,51,6.0,-999.0,94,-99.99,,,0.29,,2013-01-14 17:12:00,
2013-01-14 11:23:00,37.0,35.0,30.21,NE,45,5.0,-999.0,94,-99.99,,,0.29,,2013-01-14 17:23:00,
2013-01-14 11:33:00,37.0,35.0,30.20,NE,55,5.0,-999.0,94,-99.99,,,0.30,,2013-01-14 17:33:00,
2013-01-14 11:43:00,37.0,35.0,30.20,NE,55,5.0,-999.0,94,-99.99,,,0.30,,2013-01-14 17:43:00,
2013-01-14 11:53:00,37.0,35.0,30.20,North,354,4.0,-999.0,94,-99.99,,,0.30,,2013-01-14 17:53:00,
2013-01-14 12:03:00,37.0,35.0,30.19,North,4,5.0,-999.0,94,-99.99,,,0.32,,2013-01-14 18:03:00,
2013-01-14 12:12:00,37.0,35.0,30.19,North,4,5.0,-999.0,94,-99.99,,,0.32,,2013-01-14 18:12:00,
2013-01-14 12:22:00,37.0,35.0,30.16,NNE,30,5.0,-999.0,94,-99.99,,,0.32,,2013-01-14 18:22:00,
2013-01-14 12:33:00,37.0,35.0,30.18,North,354,6.0,-999.0,94,-99.99,,,0.34,,2013-01-14 18:33:00,
2013-01-14 12:42:00,37.0,35.0,30.18,North,354,6.0,-999.0,94,-99.99,,,0.34,,2013-01-14 18:42:00,
2013-01-14 12:53:00,37.0,35.0,30.18,North,4,7.0,-999.0,94,-99.99,,,0.39,,2013-01-14 18:53:00,
2013-01-14 13:03:00,37.0,36.0,30.17,NW,324,6.0,-999.0,95,-99.99,,,0.42,,2013-01-14 19:03:00,
2013-01-14 13:12:00,37.0,36.0,30.17,NW,324,6.0,-999.0,95,-99.99,,,0.42,,2013-01-14 19:12:00,
2013-01-14 13:22:00,37.0,36.0,30.16,NNE,32,6.0,-999.0,95,-99.99,,,0.45,,2013-01-14 19:22:00,
2013-01-14 13:33:00,37.0,36.0,30.19,NNW,345,8.0,-999.0,95,-99.99,,,0.51,,2013-01-14 19:33:00,
2013-01-14 13:43:00,37.0,36.0,30.19,NNW,345,8.0,-999.0,95,-99.99,,,0.51,,2013-01-14 19:43:00,
2013-01-14 13:52:00,36.0,34.0,30.22,NW,326,12.0,-999.0,94,-99.99,,,0.58,,2013-01-14 19:52:00,
2013-01-14 14:03:00,36.0,34.0,30.23,NNW,339,10.0,-999.0,94,-99.99,,,0.63,,2013-01-14 20:03:00,
2013-01-14 14:12:00,36.0,34.0,30.23,NNW,339,10.0,-999.0,94,-99.99,,,0.63,,2013-01-14 20:12:00,
2013-01-14 14:22:00,35.0,33.0,30.22,North,359,11.0,-999.0,94,-99.99,,,0.73,,2013-01-14 20:22:00,
2013-01-14 14:33:00,35.0,33.0,30.24,North,349,11.0,-999.0,93,-99.99,,,0.75,,2013-01-14 20:33:00,
2013-01-14 14:42:00,35.0,33.0,30.24,North,349,11.0,-999.0,93,-99.99,,,0.75,,2013-01-14 20:42:00,
2013-01-14 14:53:00,35.0,33.0,30.26,NW,322,10.0,-999.0,93,-99.99,,,0.78,,2013-01-14 20:53:00,
2013-01-14 15:02:00,35.0,34.0,30.26,North,11,7.0,-999.0,95,-99.99,,,0.93,,2013-01-14 21:02:00,
2013-01-14 15:12:00,35.0,34.0,30.26,North,11,7.0,-999.0,95,-99.99,,,0.93,,2013-01-14 21:12:00,
2013-01-14 15:23:00,35.0,33.0,30.25,ENE,77,6.0,-999.0,94,-99.99,,,1.03,,2013-01-14 21:23:00,
2013-01-14 15:33:00,35.0,33.0,30.27,NW,310,7.0,-999.0,94,-99.99,,,1.08,,2013-01-14 21:33:00,
2013-01-14 15:42:00,35.0,33.0,30.27,NW,310,7.0,-999.0,94,-99.99,,,1.08,,2013-01-14 21:42:00,
2013-01-14 15:53:00,35.0,33.0,30.27,NW,310,7.0,-999.0,94,-99.99,,,1.08,,2013-01-14 21:53:00,
2013-01-14 16:02:00,35.0,33.0,30.29,North,4,6.0,-999.0,92,-99.99,,,1.10,,2013-01-14 22:02:00,
2013-01-14 16:12:00,35.0,33.0,30.29,North,4,6.0,-999.0,92,-99.99,,,1.10,,2013-01-14 22:12:00,
2013-01-14 16:23:00,35.0,33.0,30.29,NE,45,7.0,-999.0,92,-99.99,,,1.12,,2013-01-14 22:23:00,
2013-01-14 16:33:00,35.0,33.0,30.29,ENE,65,5.0,-999.0,93,-99.99,,,1.15,,2013-01-14 22:33:00,
2013-01-14 16:43:00,35.0,33.0,30.29,ENE,65,5.0,-999.0,93,-99.99,,,1.15,,2013-01-14 22:43:00,
2013-01-14 16:53:00,35.0,33.0,30.30,ENE,75,5.0,-999.0,93,-99.99,,,1.19,,2013-01-14 22:53:00,
2013-01-14 17:03:00,34.0,32.0,30.31,East,94,7.0,-999.0,93,-99.99,,,1.25,,2013-01-14 23:03:00,
2013-01-14 17:12:00,34.0,32.0,30.31,East,94,7.0,-999.0,93,-99.99,,,1.25,,2013-01-14 23:12:00,
2013-01-14 17:23:00,34.0,32.0,30.29,ENE,66,6.0,-999.0,93,-99.99,,,1.28,,2013-01-14 23:23:00,
2013-01-14 17:33:00,34.0,32.0,30.28,NE,50,10.0,-999.0,92,-99.99,,,1.31,,2013-01-14 23:33:00,
2013-01-14 17:43:00,34.0,32.0,30.28,NE,50,10.0,-999.0,92,-99.99,,,1.31,,2013-01-14 23:43:00,
2013-01-14 17:52:00,34.0,32.0,30.29,ENE,64,11.0,-999.0,92,-99.99,,,1.32,,2013-01-14 23:52:00,
2013-01-14 18:02:00,34.0,32.0,30.30,NE,39,5.0,-999.0,92,-99.99,,,1.34,,2013-01-15 00:02:00,
2013-01-14 18:12:00,34.0,32.0,30.30,NE,39,5.0,-999.0,92,-99.99,,,1.34,,2013-01-15 00:12:00,
2013-01-14 18:22:00,34.0,32.0,30.30,NE,40,5.0,-999.0,93,-99.99,,,1.36,,2013-01-15 00:22:00,
2013-01-14 18:33:00,35.0,33.0,30.29,NE,52,8.0,-999.0,93,-99.99,,,0.03,,2013-01-15 00:33:00,
2013-01-14 18:43:00,35.0,33.0,30.29,NE,52,8.0,-999.0,93,-99.99,,,0.03,,2013-01-15 00:43:00,
2013-01-14 18:53:00,35.0,33.0,30.29,NE,34,7.0,-999.0,93,-99.99,,,0.05,,2013-01-15 00:53:00,
2013-01-14 19:02:00,35.0,33.0,30.28,NE,37,5.0,-999.0,93,-99.99,,,0.07,,2013-01-15 01:02:00,
2013-01-14 19:12:00,35.0,33.0,30.28,NNE,21,6.0,-999.0,94,-99.99,,,0.13,,2013-01-15 01:12:00,
2013-01-14 19:22:00,35.0,33.0,30.28,NNE,21,6.0,-999.0,94,-99.99,,,0.13,,2013-01-15 01:22:00,
2013-01-14 19:32:00,35.0,33.0,30.26,East,81,5.0,-999.0,94,-99.99,,,0.13,,2013-01-15 01:32:00,
2013-01-14 19:43:00,35.0,33.0,30.26,East,81,5.0,-999.0,94,-99.99,,,0.13,,2013-01-15 01:43:00,
2013-01-14 19:52:00,36.0,34.0,30.27,East,80,7.0,-999.0,94,-99.99,,,0.14,,2013-01-15 01:52:00,
2013-01-14 20:02:00,36.0,35.0,30.25,ESE,104,5.0,-999.0,95,-99.99,,,0.14,,2013-01-15 02:02:00,
2013-01-14 20:12:00,36.0,35.0,30.25,ESE,104,5.0,-999.0,95,-99.99,,,0.14,,2013-01-15 02:12:00,
2013-01-14 20:22:00,36.0,35.0,30.26,NE,37,3.0,-999.0,95,-99.99,,,0.15,,2013-01-15 02:22:00,
2013-01-14 20:32:00,36.0,35.0,30.24,ENE,60,2.0,-999.0,95,-99.99,,,0.16,,2013-01-15 02:32:00,
2013-01-14 20:42:00,36.0,35.0,30.24,ENE,60,2.0,-999.0,95,-99.99,,,0.16,,2013-01-15 02:42:00,
2013-01-14 20:52:00,36.0,35.0,30.26,NW,309,1.0,-999.0,95,-99.99,,,0.17,,2013-01-15 02:52:00,
2013-01-14 21:02:00,36.0,35.0,30.25,NW,325,3.0,-999.0,95,-99.99,,,0.17,,2013-01-15 03:02:00,
2013-01-14 21:12:00,36.0,35.0,30.25,NW,325,3.0,-999.0,95,-99.99,,,0.17,,2013-01-15 03:12:00,
2013-01-14 21:22:00,36.0,35.0,30.22,ENE,58,3.0,-999.0,95,-99.99,,,0.18,,2013-01-15 03:22:00,
2013-01-14 21:33:00,36.0,35.0,30.23,NNW,339,3.0,-999.0,95,-99.99,,,0.18,,2013-01-15 03:33:00,
2013-01-14 21:42:00,36.0,35.0,30.23,NNW,339,3.0,-999.0,95,-99.99,,,0.18,,2013-01-15 03:42:00,
2013-01-14 21:53:00,36.0,35.0,30.23,NNW,334,3.0,-999.0,95,-99.99,,,0.18,,2013-01-15 03:53:00,
2013-01-14 22:02:00,36.0,35.0,30.21,NE,42,3.0,-999.0,95,-99.99,,,0.18,,2013-01-15 04:02:00,
2013-01-14 22:12:00,36.0,35.0,30.21,NE,42,3.0,-999.0,95,-99.99,,,0.18,,2013-01-15 04:12:00,
2013-01-14 22:22:00,36.0,35.0,30.20,NE,51,4.0,-999.0,95,-99.99,,,0.18,,2013-01-15 04:22:00,
2013-01-14 22:32:00,36.0,35.0,30.21,NW,322,3.0,-999.0,95,-99.99,,,0.18,,2013-01-15 04:32:00,
2013-01-14 22:42:00,36.0,35.0,30.21,NW,322,3.0,-999.0,95,-99.99,,,0.18,,2013-01-15 04:42:00,
2013-01-14 22:52:00,37.0,35.0,30.20,North,359,3.0,-999.0,94,-99.99,,,0.18,,2013-01-15 04:52:00,
2013-01-14 23:03:00,37.0,35.0,30.19,NE,46,3.0,-999.0,94,-99.99,,,0.18,,2013-01-15 05:03:00,
2013-01-14 23:12:00,37.0,35.0,30.19,NE,50,5.0,-999.0,94,-99.99,,,0.18,,2013-01-15 05:12:00,
2013-01-14 23:22:00,37.0,35.0,30.19,NE,50,5.0,-999.0,94,-99.99,,,0.18,,2013-01-15 05:22:00,
2013-01-14 23:33:00,37.0,35.0,30.19,NE,39,2.0,-999.0,94,-99.99,,,0.19,,2013-01-15 05:33:00,
2013-01-14 23:42:00,37.0,35.0,30.19,NE,39,2.0,-999.0,94,-99.99,,,0.19,,2013-01-15 05:42:00,
2013-01-14 23:52:00,37.0,35.0,30.19,ENE,75,5.0,-999.0,94,-99.99,,,0.19,,2013-01-15 05:52:00,